STARLINK-35268, 65810

Orbit data source: Space-Track

STARLINK-35268, 65810 is a payload satellite owned by SpaceX/Seattle (US) in SSO that was launched on Fri, 26 Sep 2025 UTC via an FALCON 9 launch vehicle from the Air Force Western Test Range (AFWTR). Payload-class satellites include a variety of spacecraft equipped with specific instruments for various scientific and technological missions. These include communications satellites like Starlink; space stations such as the ISS; scientific satellites like the Hubble; Earth observation satellites from companies like Planet Labs, Umbra, and HawkEye 360; GPS; miniature CubeSats for education and research; and military/defense satellites.

Loading next visibility...
Identifier
65810, 2025-218V
Orbit
SSO
Country
Flag of USUS
Related business
Manufacturer
SpaceX/Seattle
Mission
Operational Commercial Communications
Bus & Motor
STARLINK V2MO, Unknown motor
Mass
575 kg wet, ~530 kg dry
Launch date (UTC)
2025-09-26 (2 months ago)
Launch vehicle
FALCON 9
Launch site
Air Force Western Test Range (AFWTR)
Object type
Payload
Rocket body
Debris
Shape & HBR
Box + 2 Pan, 17.7 m
Radar Cross Section
36.964 m²

Expand to show TLE details & history
Last TLE update: 16 hours ago

TLE from 16 hours ago
0 STARLINK-35268
1 65810U 25218V   25340.58922993  .00009932  00000-0  69143-3 0  9998
2 65810  97.6012 201.2293 0001989  87.2490 272.8964 15.05655851 10968
Epoch: 2025-12-06T14:08Z
TLE epoch observation values (Epoch: 2025-12-06T14:08:29.465Z)
Latitude
-0.0001°
Longitude
-86.50826°
Altitude
552.489 km
Speed
7.586 km/s
True Right ascension
13h 24m 55s
True Declination
0° 00' 00"
Sunlit
Object was in daylight at epoch
Visualization orbit readout
Latitude
Unknown
Longitude
Unknown
Altitude
Unknown
Speed
Unknown
Apparent Right ascension
Unknown
Apparent Declination
Unknown
Sunlit
N/A
Visualization observer readout
Local Sidereal Time
04:00:38
Azimuth
Unknown
Elevation
Unknown
Doppler factor
Unknown
Orbital elements
Apogee altitude
547.864 km
Perigee altitude
545.109 km
Semi-major axis
6,924.624 km
Eccentricity
0.0002
Inclination
97.6012°
RAAN
201.2293°
Arg. of periapsis
87.249°
True anomaly
272.87364°
Mean anomaly
272.8964°
Eccentric anomaly
272.88502°
Mean motion
3.76659 °/min
Orbital period
95.58 mins
BSTAR
0.00069143
Loading maneuver chart data...
Computing Atmospheric mass density...
Loading historical data...
Loading historical data...
Loading historical data...
Loading historical data...
Loading historical data...
Loading historical data...
Loading historical data...

Documentation

Showing up to 5 results
|